TimeEST,TemperatureF,Dew PointF,Humidity,Sea Level PressureIn,VisibilityMPH,Wind Direction,Wind SpeedMPH,Gust SpeedMPH,PrecipitationIn,Events,Conditions,WindDirDegrees,DateUTC
12:51 AM,42.1,33.1,70,29.97,10.0,Calm,Calm,-,N/A,,Overcast,0,2013-12-02 05:51:00
1:51 AM,42.1,32.0,67,29.96,10.0,Calm,Calm,-,N/A,,Overcast,0,2013-12-02 06:51:00
2:51 AM,41.0,32.0,70,29.95,10.0,Calm,Calm,-,N/A,,Overcast,0,2013-12-02 07:51:00
3:51 AM,39.9,30.9,70,29.93,10.0,Calm,Calm,-,N/A,,Clear,0,2013-12-02 08:51:00
4:51 AM,37.9,33.1,83,29.91,10.0,Calm,Calm,-,N/A,,Mostly Cloudy,0,2013-12-02 09:51:00
5:51 AM,36.0,32.0,86,29.92,10.0,Calm,Calm,-,N/A,,Mostly Cloudy,0,2013-12-02 10:51:00
6:51 AM,37.0,33.1,86,29.92,10.0,Calm,Calm,-,N/A,,Overcast,0,2013-12-02 11:51:00
7:51 AM,37.0,33.1,86,29.93,10.0,Calm,Calm,-,N/A,,Overcast,0,2013-12-02 12:51:00
8:51 AM,39.0,34.0,82,29.92,10.0,Calm,Calm,-,N/A,,Overcast,0,2013-12-02 13:51:00
9:51 AM,43.0,36.0,76,29.90,10.0,Calm,Calm,-,N/A,,Scattered Clouds,0,2013-12-02 14:51:00
10:51 AM,48.9,35.1,59,29.89,10.0,SW,3.5,-,N/A,,Mostly Cloudy,220,2013-12-02 15:51:00
11:51 AM,52.0,35.1,53,29.86,10.0,SW,6.9,-,N/A,,Mostly Cloudy,220,2013-12-02 16:51:00
12:51 PM,55.9,36.0,47,29.83,10.0,SSW,4.6,-,N/A,,Overcast,210,2013-12-02 17:51:00
1:51 PM,55.9,36.0,47,29.82,10.0,Calm,Calm,-,N/A,,Overcast,0,2013-12-02 18:51:00
2:51 PM,55.9,36.0,47,29.80,10.0,Variable,3.5,-,N/A,,Partly Cloudy,0,2013-12-02 19:51:00
3:51 PM,55.9,37.0,49,29.79,10.0,Calm,Calm,-,N/A,,Clear,0,2013-12-02 20:51:00
4:51 PM,54.0,36.0,51,29.80,10.0,Calm,Calm,-,N/A,,Overcast,0,2013-12-02 21:51:00
5:51 PM,53.1,36.0,52,29.81,10.0,Calm,Calm,-,N/A,,Overcast,0,2013-12-02 22:51:00
6:51 PM,50.0,36.0,59,29.81,10.0,Calm,Calm,-,N/A,,Clear,0,2013-12-02 23:51:00
7:51 PM,48.0,37.9,68,29.82,10.0,ENE,3.5,-,N/A,,Scattered Clouds,60,2013-12-03 00:51:00
8:51 PM,48.9,37.0,64,29.83,10.0,Calm,Calm,-,N/A,,Overcast,0,2013-12-03 01:51:00
9:51 PM,46.0,37.0,71,29.82,10.0,ESE,3.5,-,N/A,,Overcast,110,2013-12-03 02:51:00
10:51 PM,45.0,37.9,76,29.82,10.0,Calm,Calm,-,N/A,,Overcast,0,2013-12-03 03:51:00
11:51 PM,45.0,37.0,74,29.82,10.0,Calm,Calm,-,N/A,,Overcast,0,2013-12-03 04:51:00